Location: Hicks
(37.9226°N, 89.9954°W)
Time: 08:28:10
(UTC+00:00)

Cosmos 1606 Rocket - Pass Details

Date: 14 December 2025
Orbit: 595 x 625 km, 82.5° (Epoch: 24 January)

Event Time Altitude Azimuth Distance (km) Brightness Sun altitude
Rises 23:25:25 0° 197° (SSW) 2,878 7.6 -8.6°
Reaches altitude 10° 23:27:40 10° 202° (SSW) 1,981 6.8 -9.0°
Maximum altitude 23:31:58 53° 279° (W) 768 4.4 -9.8°
Drops below altitude 10° 23:36:19 10° 357° (N) 2,005 6.0 -10.6°
Sets 23:38:37 0° 2° (N) 2,917 6.8 -11.0°
